Weather History for KBWG - April, 2014

Change the Weather History Date:

Monday, April 28, 2014

  Actual Average Record
Temperature  
Mean Temperature 66 °F 61 °F  
Max Temperature 70 °F 73 °F 91 °F (1906)
Min Temperature 61 °F 50 °F 33 °F (1934)
Degree Days  
Heating Degree Days 0 5  
Month to date heating degree days 189 241  
Since 1 July heating degree days 4451 3959  
Cooling Degree Days 1 1  
Month to date cooling degree days 13 27  
Year to date cooling degree days 13 32  
Growing Degree Days 16 (Base 50)    
Moisture  
Dew Point 62 °F    
Average Humidity 87    
Maximum Humidity 100    
Minimum Humidity 73    
Precipitation  
Precipitation 2.50 in 0.15 in 2.50 in (2014)
Month to date precipitation 6.52 4.02  
Year to date precipitation 17.42 16.00  
Snow  
Snow 0.00 in 0.00 in 0.00 in ()
Month to date snowfall T 0.2  
Since 1 July snowfall 10.4 9.1  
Snow Depth 0.00 in    
Sea Level Pressure  
Sea Level Pressure 29.68 in    
Wind  
Wind Speed 11 mph (SSE)    
Max Wind Speed 31 mph    
Max Gust Speed 40 mph    
Visibility 7 miles    
Events Rain , Thunderstorm    
T = Trace of Precipitation, MM = Missing Value Source: NWS Daily Summary

Daily Weather History Graph

Daily Weather History Graph

Search for Another Location

Airport or City:

Trip Planner

Search our weather history database for the weather conditions in past years. The results will help you decide how hot, cold, wet, or windy it might be!

Date:

Astronomy

Apr. 28, 2014 Rise Set
Actual Time 5:54 AM CDT 7:31 PM CDT
Civil Twilight 5:27 AM CDT 7:59 PM CDT
Nautical Twilight 4:53 AM CDT 8:33 PM CDT
Astronomical Twilight 4:18 AM CDT 9:08 PM CDT
Moon 5:31 AM CDT (4/28) 7:10 PM CDT (4/28)
Length of Visible Light 14h 32m
Length of Day
13h 37m
Waning Crescent, 0% of the Moon is Illuminated
Apr 28
Waning Crescent
Apr 29
New
May 6
First Quarter
May 14
Full
May 21
Last Quarter

Hourly Weather History & Observations

Time (CDT) Temp. Dew Point Humidity Pressure Visibility Wind Dir Wind Speed Gust Speed Precip Events Conditions
1:02 AM 64.0 °F 60.1 °F 87% 29.74 in 10.0 mi ESE 9.2 mph - 0.00 in Rain , Thunderstorm Light Thunderstorms and Rain
1:27 AM 64.9 °F 59.0 °F 81% 29.73 in 10.0 mi SE 13.8 mph - 0.05 in Rain , Thunderstorm Light Rain
1:53 AM 64.0 °F 60.1 °F 87% 29.72 in 10.0 mi SE 9.2 mph - 0.06 in Rain , Thunderstorm Light Thunderstorms and Rain
2:19 AM 64.9 °F 60.1 °F 84% 29.70 in 10.0 mi SSE 11.5 mph 18.4 mph 0.00 in Rain , Thunderstorm Light Rain
2:26 AM 64.9 °F 60.1 °F 84% 29.70 in 10.0 mi SSE 12.7 mph - 0.00 in Rain , Thunderstorm Light Thunderstorms and Rain
2:41 AM 66.0 °F 60.1 °F 81% 29.68 in 10.0 mi SSE 16.1 mph - 0.00 in   Overcast
3:53 AM 68.0 °F 61.0 °F 78% 29.62 in 10.0 mi South 25.3 mph 34.5 mph N/A   Scattered Clouds
5:44 AM 69.1 °F 62.1 °F 78% 29.60 in 10.0 mi South 24.2 mph 39.1 mph N/A Thunderstorm Overcast
5:53 AM 68.0 °F 63.0 °F 84% 29.61 in 9.0 mi South 21.9 mph 33.4 mph 0.00 in Rain , Thunderstorm Light Thunderstorms and Rain
6:06 AM 66.9 °F 63.0 °F 87% 29.61 in 1.8 mi South 21.9 mph 32.2 mph 0.23 in Rain , Thunderstorm Heavy Thunderstorms and Rain
6:17 AM 66.9 °F 63.0 °F 87% 29.61 in 3.0 mi South 25.3 mph 35.7 mph 0.29 in Rain , Thunderstorm Light Thunderstorms and Rain
6:30 AM 68.0 °F 63.0 °F 84% 29.63 in 10.0 mi South 25.3 mph 35.7 mph 0.29 in Rain , Thunderstorm Light Thunderstorms and Rain
6:37 AM 68.0 °F 63.0 °F 84% 29.67 in 7.0 mi West 15.0 mph 32.2 mph 0.30 in Rain , Thunderstorm Light Rain
6:40 AM 66.0 °F 63.0 °F 90% 29.68 in 2.0 mi WNW 16.1 mph 32.2 mph 0.49 in Rain Heavy Rain
6:42 AM 66.0 °F 63.0 °F 90% 29.67 in 1.0 mi WNW 15.0 mph 31.1 mph 0.59 in Rain Heavy Rain
6:45 AM 64.9 °F 62.1 °F 90% 29.68 in 0.8 mi NW 10.4 mph 23.0 mph 0.64 in Rain Heavy Rain
6:51 AM 64.4 °F 62.6 °F 94% 29.68 in 1.5 mi NW 10.4 mph - 0.66 in Rain Rain
6:53 AM 64.9 °F 62.1 °F 90% 29.68 in 2.5 mi WNW 9.2 mph - 0.66 in Rain Rain
7:00 AM 64.9 °F 62.1 °F 90% 29.71 in 5.0 mi WNW 9.2 mph 18.4 mph 0.02 in Rain Rain
7:34 AM 64.0 °F 61.0 °F 90% 29.73 in 10.0 mi West 4.6 mph - 0.06 in Rain , Thunderstorm Light Rain
7:42 AM 64.0 °F 61.0 °F 90% 29.74 in 10.0 mi SSW 8.1 mph - 0.06 in Rain , Thunderstorm Light Thunderstorms and Rain
7:53 AM 64.0 °F 61.0 °F 90% 29.75 in 10.0 mi South 10.4 mph - 0.07 in Rain Light Rain
9:53 AM 63.0 °F 61.0 °F 93% 29.85 in 2.5 mi West 9.2 mph - 0.13 in Rain Heavy Rain
10:00 AM 63.0 °F 62.1 °F 97% 29.85 in 2.0 mi West 10.4 mph - 0.03 in Rain Rain
10:13 AM 64.0 °F 62.1 °F 93% 29.83 in 4.0 mi WSW 4.6 mph - 0.05 in Rain Light Rain
10:53 AM 63.0 °F 62.1 °F 97% 29.82 in 5.0 mi SSE 5.8 mph - 0.09 in Rain Rain
11:27 AM 63.0 °F 61.0 °F 93% 29.79 in 3.0 mi SE 9.2 mph - 0.11 in Rain , Thunderstorm Heavy Rain
11:53 AM 62.1 °F 60.1 °F 93% 29.75 in 4.0 mi ESE 16.1 mph - 0.21 in Rain , Thunderstorm Rain
12:18 PM 63.0 °F 60.1 °F 90% 29.78 in 4.0 mi SSE 9.2 mph - 0.07 in Rain Rain
12:53 PM 63.0 °F 60.1 °F 90% 29.72 in 10.0 mi ESE 6.9 mph - 0.16 in Rain Light Rain
1:53 PM 64.0 °F 61.0 °F 90% 29.72 in 10.0 mi ESE 8.1 mph - 0.03 in Rain Light Rain
2:53 PM 64.9 °F 62.1 °F 90% 29.69 in 10.0 mi ESE 11.5 mph - 0.01 in Rain Light Rain
4:08 PM 66.0 °F 62.1 °F 87% 29.68 in 2.5 mi Variable 5.8 mph - 0.09 in Rain , Thunderstorm Light Thunderstorms and Rain
4:15 PM 66.0 °F 63.0 °F 90% 29.68 in 10.0 mi SE 3.5 mph - 0.09 in Thunderstorm Thunderstorm
4:26 PM 66.0 °F 62.1 °F 87% 29.67 in 10.0 mi Variable 3.5 mph - 0.09 in Thunderstorm Overcast
4:34 PM 66.0 °F 62.1 °F 87% 29.66 in 10.0 mi ESE 8.1 mph - 0.09 in Rain Light Rain
4:48 PM 66.2 °F 60.8 °F 83% 29.66 in 9.0 mi ESE 9.2 mph - 0.10 in Rain , Thunderstorm Light Rain
4:53 PM 64.9 °F 61.0 °F 87% 29.64 in 6.0 mi ESE 8.1 mph - 0.11 in Rain , Thunderstorm Rain
5:31 PM 64.0 °F 62.1 °F 93% 29.64 in 7.0 mi NNW 5.8 mph - 0.05 in Rain , Thunderstorm Light Thunderstorms and Rain
5:49 PM 64.4 °F 62.6 °F 94% 29.63 in 10.0 mi NNE 5.8 mph - 0.05 in   Mostly Cloudy
5:53 PM 64.0 °F 62.1 °F 93% 29.62 in 10.0 mi NNE 4.6 mph - 0.05 in Rain Light Rain
6:17 PM 64.0 °F 62.1 °F 93% 29.66 in 3.0 mi Calm Calm - 0.07 in Rain , Thunderstorm Heavy Rain
6:21 PM 63.0 °F 62.1 °F 97% 29.70 in 1.8 mi SW 10.4 mph - 0.14 in Rain , Thunderstorm Heavy Thunderstorms and Rain
6:24 PM 64.0 °F 62.1 °F 93% 29.67 in 1.0 mi SW 9.2 mph - 0.30 in Rain , Thunderstorm Heavy Thunderstorms and Rain
6:33 PM 64.9 °F 62.1 °F 90% 29.63 in 1.5 mi Variable 3.5 mph - 0.38 in Rain , Thunderstorm Heavy Thunderstorms and Rain
6:42 PM 64.0 °F 62.1 °F 93% 29.62 in 3.0 mi NE 8.1 mph - 0.41 in Rain , Thunderstorm Thunderstorms and Rain
6:53 PM 64.0 °F 62.1 °F 93% 29.61 in 9.0 mi East 6.9 mph - 0.41 in Rain , Thunderstorm Light Thunderstorms and Rain
7:07 PM 64.0 °F 62.1 °F 93% 29.62 in 6.0 mi Calm Calm - 0.02 in Rain , Thunderstorm Rain
7:16 PM 64.0 °F 62.1 °F 93% 29.63 in 7.0 mi SSE 3.5 mph - 0.02 in Rain Light Rain
7:31 PM 64.0 °F 62.1 °F 93% 29.60 in 2.0 mi SSE 10.4 mph 19.6 mph 0.09 in Rain Heavy Rain
7:44 PM 66.0 °F 63.0 °F 90% 29.60 in 7.0 mi South 11.5 mph 20.7 mph 0.10 in Rain Light Rain
7:53 PM 66.9 °F 63.0 °F 87% 29.60 in 10.0 mi SSE 12.7 mph - 0.10 in   Mostly Cloudy
8:53 PM 66.9 °F 63.0 °F 87% 29.62 in 6.0 mi South 18.4 mph 27.6 mph 0.07 in Rain Rain
10:34 PM 64.9 °F 62.1 °F 90% 29.59 in 4.0 mi South 13.8 mph - 0.07 in Rain , Thunderstorm Heavy Rain
10:49 PM 64.4 °F 62.6 °F 94% 29.58 in 10.0 mi SSE 9.2 mph - 0.08 in Rain Light Rain
10:53 PM 64.9 °F 62.1 °F 90% 29.58 in 10.0 mi SSE 8.1 mph - 0.08 in Rain Light Rain
11:53 PM 64.0 °F 59.0 °F 84% 29.60 in 10.0 mi SSW 6.9 mph - 0.03 in   Overcast